Flag for Denmark Weather past 2 weeks in Odense, Denmark

Now
48 °F

Cool.


Feels Like: 43 °F
Forecast: 42 / 44 °F
Wind: 14 mph from West

Location: Vamdrup

Current Time: Dec 19, 2014 at 4:35:15 AM

Latest Report: Dec 19, 2014 at 3:50 AM


Visibility: N/A

Pressure: 29.47 "Hg

Humidity: 87%

Dew point: 45 °F

Location of OdenseLocation

Historic Weather in Odense — Graph

°F

Odense temperature yesterday

Maximum temperature yesterday: 52 °F (at 8:20 PM)
Minimum temperature yesterday: 39 °F (at 12:20 AM)
Average temperature yesterday: 48 °F

Past Weeks' High & Low Weather Summary

 TemperatureHumidityPressure
High52 °F (Dec 18, 8:20 PM)100% (Dec 4, 8:50 PM)30.24 "Hg (Dec 4, 8:50 PM)
Low30 °F (Dec 9, 3:20 AM)71% (Dec 6, 1:50 PM)28.91 "Hg (Dec 12, 1:50 PM)
Average39 °F91%29.71 "Hg
* Reported Dec 4 3:20 AM — Dec 19 3:20 AM, Odense, Weather by CustomWeather, © 2014

Note: Actual official high and low records may vary slightly from our data, if they occured in-between our weather recording intervals... More about our weather records

Advertising

Odense weather history for previous 24 hours

 ConditionsComfort  
Time TempWeatherWind HumidityBarometerVisibility
3:20 AM
Dec 19
48 °FCool.16 mph87%29.47 "HgN/A
2:50 AM48 °FCool.14 mph87%29.47 "HgN/A
2:20 AM48 °FCool.15 mph87%29.47 "HgN/A
1:50 AM48 °FCool.18 mph94%29.47 "HgN/A
1:20 AM50 °FCool.18 mph88%29.45 "HgN/A
12:50 AM50 °FCool.17 mph94%29.45 "HgN/A
12:20 AM50 °FCool.21 mph94%29.45 "HgN/A
11:50 PM
Dec 18
50 °FCool.21 mph94%29.45 "HgN/A
11:20 PM52 °FCool.23 mph88%29.42 "HgN/A
10:50 PM52 °FCool.26 mph88%29.42 "HgN/A
10:20 PM52 °FCool.25 mph94%29.42 "HgN/A
9:50 PM52 °FCool.25 mph88%29.42 "HgN/A
9:20 PM52 °FCool.25 mph94%29.42 "HgN/A
8:50 PM50 °FCool.25 mph100%29.42 "HgN/A
8:20 PM52 °FCool.26 mph94%29.39 "HgN/A
7:50 PM50 °FCool.25 mph100%29.39 "HgN/A
7:20 PM50 °FCool.25 mph94%29.39 "HgN/A
6:50 PM50 °FCool.23 mph94%29.39 "HgN/A
6:20 PM50 °FCool.22 mph94%29.39 "HgN/A
4:50 PM50 °FLight rain. Fog.22 mph94%29.42 "Hg1 mi
3:50 PM48 °FLight rain. Fog.20 mph100%29.45 "Hg1 mi
2:50 PM48 °FLight rain. Fog.17 mph100%29.45 "Hg1 mi
1:50 PM48 °FDrizzle. Fog.17 mph100%29.47 "Hg1 mi
12:50 PM48 °FDrizzle. Dense fog.21 mph100%29.50 "Hg1 mi
11:50 AM48 °FDrizzle. Dense fog.20 mph100%29.53 "Hg1 mi
10:50 AM48 °FDrizzle. Fog.16 mph94%29.53 "Hg2 mi
9:50 AM48 °FDrizzle. Fog.17 mph94%29.53 "Hg1 mi
9:20 AM48 °FDrizzle. Fog.14 mph94%29.56 "Hg1 mi
8:50 AM48 °FFog.14 mph94%29.56 "Hg1 mi
7:50 AM46 °FCool.15 mph100%29.56 "HgN/A
7:20 AM46 °FCool.17 mph100%29.56 "HgN/A
6:50 AM46 °FCool.15 mph93%29.56 "HgN/A
6:20 AM46 °FCool.13 mph93%29.56 "HgN/A
5:50 AM46 °FCool.12 mph87%29.56 "HgN/A
5:20 AM46 °FCool.13 mph87%29.56 "HgN/A
4:20 AM46 °FCool.10 mph93%29.56 "HgN/A
Weather by CustomWeather, © 2014

See weather overviewHow to use our weather pages